STARLINK-33695 (63478 NORAD) Tracking and Keplerian Element Data

This shows tracking and keplerian element data for the satellite.

Feedback or suggestion? Click here.




ElementValue
Catalog63478
NameSTARLINK-33695
Epoch Orbit4083
Epoch Day354.01003176
Epoch Year2025
RAAN346.0275
Inclination42.9962
Eccentricity0.0001232
Argument of Perigee160.8258
Mean Anonmoly199.264
Mean Motion15.27589324
Decay Rate0.00016159
L11 63478U 25070U 25354.01003176 .00016159 00000+0 59526-3 0 9990
L22 63478 42.9962 346.0275 0001232 160.8258 199.2640 15.27589324 40839



Live tracking and technical data element details for STARLINK-33695 (NORAD 63478). STARLINK-33695 can be tracked NOW for your location showing map with azimuth and elevation plus other details from your city location.







IsCatalogInMostPopularTable: catalog: 63478, numindb: 2
Update: records affected: 1



GetName: 63478 STARLINK-33695

Hit Count: updated at: Sun, 08 Feb 2026 17:23:32 GMT